This is the latest recevied weather packets stored in our database for station/object W4GAP. If no packets are shown the sender has not sent any weather packets the latest 10 day(s).
| Time | Temp. | Humidity | Pressure | Rain* | Wind** | Luminosity | Snow |
|---|---|---|---|---|---|---|---|
| 1778162870 | 17.78° C | 99% | 1008.9 hPa | 0 mm | - | 26 W/m² | - |
| 1778162568 | 17.22° C | 99% | 1008.9 hPa | 0 mm | - | 32 W/m² | - |
| 1778162264 | 17.22° C | 99% | 1008.6 hPa | 0 mm | - | 32 W/m² | - |
| 1778161962 | 17.22° C | 99% | 1009 hPa | 0 mm | - | 26 W/m² | - |
| 1778161658 | 17.22° C | 99% | 1008.9 hPa | 0 mm | - | 8 W/m² | - |
| 1778161355 | 17.22° C | 99% | 1008.8 hPa | 0 mm | - | 3 W/m² | - |
| 1778161050 | 17.22° C | 99% | 1009.1 hPa | 0 mm | - | 3 W/m² | - |
| 1778160747 | 17.22° C | 99% | 1009.1 hPa | 0 mm | - | 3 W/m² | - |
| 1778160445 | 17.22° C | 99% | 1008.6 hPa | 0 mm | - | 3 W/m² | - |
| 1778160142 | 17.22° C | 99% | 1008.1 hPa | 0 mm | - | 9 W/m² | - |
| 1778159838 | 17.22° C | 99% | 1007.7 hPa | 0 mm | - | 19 W/m² | - |
| 1778159536 | 17.22° C | 99% | 1007.8 hPa | 0 mm | - | 17 W/m² | - |
| 1778159232 | 17.22° C | 99% | 1008 hPa | 0 mm | - | 14 W/m² | - |
| 1778158930 | 17.22° C | 99% | 1008.1 hPa | 0 mm | - | 21 W/m² | - |
| 1778158629 | 17.22° C | 99% | 1008 hPa | 0 mm | - | 13 W/m² | - |
| 1778158326 | 17.22° C | 99% | 1008.8 hPa | 0 mm | - | 4 W/m² | - |
| 1778158022 | 17.22° C | 99% | 1008.3 hPa | 0 mm | - | 4 W/m² | - |
| 1778157719 | 17.22° C | 99% | 1008.1 hPa | 0 mm | - | 8 W/m² | - |
| 1778157418 | 17.22° C | 99% | 1008.3 hPa | 0 mm | - | 14 W/m² | - |
| 1778157115 | 16.67° C | 99% | 1008.2 hPa | 0 mm | - | 21 W/m² | - |
| 1778156810 | 16.67° C | 99% | 1008.9 hPa | 0 mm | - | 4 W/m² | - |
| 1778156506 | 16.67° C | 99% | 1008.5 hPa | 0 mm | - | 1 W/m² | - |
| 1778156202 | 16.67° C | 99% | 1008.4 hPa | 0 mm | - | 5 W/m² | - |
| 1778155898 | 16.67° C | 99% | 1008.4 hPa | 0 mm | - | 8 W/m² | - |
| 1778155594 | 16.67° C | 99% | 1008.5 hPa | 0 mm | - | 5 W/m² | - |
* Rain latest hour (hover to see other rain measurements)
** Current wind speed in m/s (hover to see current wind gust speed)